Tracking 30744 objects as of 23-Jun-2025
HD Live streaming from Space Station
objects crossing your sky now

STARLINK-6194

Track STARLINK-6194 now!
10-day predictions
STARLINK-6194 is classified as:


NORAD ID: 57077
Int'l Code: 2023-088AF
Perigee: 565.3 km
Apogee: 567.1 km
Inclination: 43.0 °
Period: 95.8 minutes
Semi major axis: 6937 km
RCS: Unknown
Launch date: June 22, 2023
Source: United States (US)
Launch site: AIR FORCE WESTERN TEST RANGE (AFWTR)
Your satellite tracking list
Your tracking list is empty




NASA's NSSDC Master Catalog

Two Line Element Set (TLE):
1 57077U 23088AF  25173.41414342 -.00000362  00000-0 -11729-4 0  9995
2 57077  43.0046  69.0638 0001300 287.0305  73.0394 15.02535308110466
Source of the keplerian elements: AFSPC